Lake Village, AR (71653)

7:42 PM CDT on August 29, 2015 (GMT -0500)
Lake Hall Rd near Fawnwood Comm Ctr | | Change Station
CLOSE
Current Station
Personal Weather Station
Location: Lake Village, AR
Elevation: 118 ft
Nearby Weather Stations

Elev 118 ft 33.28 °N, 91.24 °W | Updated 5 minutes ago

Clear
Clear
86.9 °F
Feels Like 92 °F
N
0.0
Wind Variable Wind from SSE
Gusts 1.0 mph

Today
High -- | Low -- °F
--% Chance of Precip.
Yesterday
High -- | Low -- °F
Precip. -- in
6:37 AM 7:34 PM
Full, 100% visible
Pressure 29.98 in
Visibility 8.0 miles
Clouds Few 8000 ft
Heat Index 92 °F
Dew Point 70 °F
Humidity 58%
Rainfall 0.00 in
Snow Depth Not available.
UV 0 out of 12
Pollen 8.10 out of 12
Air Quality Not available.
Flu Activity Not available.
METAR KGLH 292353Z AUTO 00000KT 8SM FEW080 31/19 A2996 RMK AO2 SLP151 T03060194 10350 20306 55005
Pressure 29.98 in
Visibility 8.0 miles
Clouds Few 8000 ft
Heat Index 92 °F
Dew Point 70 °F
Humidity 58%
Rainfall 0.00 in
Snow Depth Not available.
UV 0 out of 12
Pollen 8.10 out of 12
Air Quality Not available.
Flu Activity Not available.
METAR KGLH 292353Z AUTO 00000KT 8SM FEW080 31/19 A2996 RMK AO2 SLP151 T03060194 10350 20306 55005

10-Day Weather Forecast

×

Almanac

Astronomy

Aug. 29, 2015 Rise Set
Actual Time
Civil Twilight
Nautical Twilight
Astronomical Twilight
Moon
Length of Visible Light
Length of Day
Tomorrow will be .
, % of the Moon is Illuminated

Today's Extremes

State Highs State Lows

Community

WunderPhotos

Upload Photos

1,850,813 photos uploaded!

WunderBlogs® & News

Nearby

Air Quality

  Air Quality AQ Index Pollutant
Not available.

Snow Depth

Station Depth Elevation

Earthquake Activity

City Distance Mag. Time & Date
Minimum magnitude displayed is 2.5.

Coastal Water Temperatures

Place Temperature

Stations

Nearby Weather Stations

Station Location Temp. Windchill Dew Point Humidity Wind Precip. Elev Updated Type